GLO1331 SBFL-SBPA

Flight info

Callsign GLO1331
Flight time 0h 43m
Altitude 28000
Route UGREV UN857 TIMVI
Aircraft B738/M-SDE2E3FGHIRWXY/LB1

Departure

Time 2026-04-14 22:15
Airport Hercílio Luz International Airport (SBFL)

Arrival

Time 2026-04-14 22:58
Airport Porto Alegre-Salgado Filho International Airport (SBPA)
Time Latitude Longitude Altitude Speed Heading
2026-04-14 21:46 -27.67287 -48.54540 26 ft 0 kts 212°
2026-04-14 22:06 -27.67283 -48.54537 -1 ft 2 kts 213°
2026-04-14 22:06 -27.67269 -48.54525 30 ft 3 kts 230°
2026-04-14 22:07 -27.67259 -48.54507 28 ft 3 kts 261°
2026-04-14 22:07 -27.67260 -48.54488 30 ft 2 kts 298°
2026-04-14 22:07 -27.67262 -48.54483 29 ft 1 kts 302°
2026-04-14 22:10 -27.67260 -48.54487 28 ft 3 kts 302°
2026-04-14 22:10 -27.67241 -48.54522 28 ft 7 kts 302°
2026-04-14 22:10 -27.67215 -48.54568 26 ft 7 kts 302°
2026-04-14 22:10 -27.67184 -48.54606 30 ft 7 kts 330°
2026-04-14 22:11 -27.67138 -48.54615 27 ft 7 kts
2026-04-14 22:11 -27.67088 -48.54600 27 ft 8 kts 13°
2026-04-14 22:11 -27.67039 -48.54616 26 ft 8 kts 314°
2026-04-14 22:11 -27.67010 -48.54669 28 ft 8 kts 302°
2026-04-14 22:12 -27.66980 -48.54723 27 ft 9 kts 300°
2026-04-14 22:12 -27.66946 -48.54782 27 ft 12 kts 302°
2026-04-14 22:12 -27.66903 -48.54864 27 ft 12 kts 300°
2026-04-14 22:12 -27.66857 -48.54952 27 ft 14 kts 300°
2026-04-14 22:13 -27.66804 -48.55049 28 ft 15 kts 305°
2026-04-14 22:13 -27.66748 -48.55115 29 ft 7 kts 347°
2026-04-14 22:13 -27.66667 -48.55135 29 ft 14 kts 349°
2026-04-14 22:13 -27.66589 -48.55104 27 ft 9 kts 71°
2026-04-14 22:14 -27.66608 -48.55049 25 ft 0 kts 120°
2026-04-14 22:14 -27.66609 -48.55049 25 ft 1 kts 120°
2026-04-14 22:14 -27.66712 -48.54859 26 ft 67 kts 120°
2026-04-14 22:15 -27.67086 -48.54164 26 ft 138 kts 121°
2026-04-14 22:15 -27.67680 -48.53100 313 ft 171 kts 123°
2026-04-14 22:15 -27.68335 -48.51941 1120 ft 176 kts 121°
2026-04-14 22:15 -27.68973 -48.50777 2012 ft 177 kts 120°
2026-04-14 22:16 -27.69625 -48.49616 2472 ft 197 kts 128°
2026-04-14 22:16 -27.70817 -48.48699 2725 ft 228 kts 166°
2026-04-14 22:16 -27.72450 -48.48874 3003 ft 251 kts 203°
2026-04-14 22:16 -27.74078 -48.49806 3395 ft 271 kts 207°
2026-04-14 22:17 -27.75797 -48.50722 4204 ft 275 kts 203°
2026-04-14 22:17 -27.77568 -48.51537 5113 ft 276 kts 200°
2026-04-14 22:17 -27.79397 -48.52271 5917 ft 281 kts 198°
2026-04-14 22:17 -27.81276 -48.52949 6730 ft 285 kts 196°
2026-04-14 22:18 -27.83178 -48.53596 7535 ft 287 kts 195°
2026-04-14 22:18 -27.85101 -48.54237 8317 ft 290 kts 195°
2026-04-14 22:18 -27.87042 -48.54901 9110 ft 293 kts 200°
2026-04-14 22:18 -27.88742 -48.56131 9878 ft 298 kts 223°
2026-04-14 22:19 -27.90222 -48.57845 10519 ft 307 kts 226°
2026-04-14 22:19 -27.93330 -48.61627 10874 ft 353 kts 226°
2026-04-14 22:19 -27.95053 -48.63726 11075 ft 372 kts 226°
2026-04-14 22:20 -27.96839 -48.65891 11566 ft 379 kts 226°
2026-04-14 22:20 -27.98641 -48.68069 12309 ft 379 kts 226°
2026-04-14 22:20 -28.00448 -48.70248 12981 ft 381 kts 226°
2026-04-14 22:20 -28.02274 -48.72446 13605 ft 384 kts 226°
2026-04-14 22:21 -28.04107 -48.74651 14204 ft 386 kts 226°
2026-04-14 22:21 -28.05958 -48.76877 14746 ft 389 kts 226°
2026-04-14 22:21 -28.07814 -48.79112 15297 ft 391 kts 227°
2026-04-14 22:21 -28.09685 -48.81365 15835 ft 393 kts 227°
2026-04-14 22:22 -28.11564 -48.83629 16371 ft 396 kts 227°
2026-04-14 22:22 -28.13458 -48.85912 16890 ft 398 kts 227°
2026-04-14 22:22 -28.15358 -48.88204 17416 ft 400 kts 227°
2026-04-14 22:22 -28.17247 -48.90484 17911 ft 403 kts 227°
2026-04-14 22:23 -28.19198 -48.92839 18406 ft 406 kts 227°
2026-04-14 22:23 -28.21063 -48.95092 18797 ft 408 kts 227°
2026-04-14 22:23 -28.23006 -48.97454 19227 ft 410 kts 228°
2026-04-14 22:23 -28.24889 -48.99812 19684 ft 411 kts 229°
2026-04-14 22:24 -28.26837 -49.02274 20168 ft 412 kts 229°
2026-04-14 22:24 -28.28755 -49.04692 20617 ft 413 kts 229°
2026-04-14 22:24 -28.30669 -49.07076 21054 ft 415 kts 228°
2026-04-14 22:24 -28.32622 -49.09493 21488 ft 416 kts 229°
2026-04-14 22:25 -28.34584 -49.11920 21885 ft 418 kts 229°
2026-04-14 22:25 -28.36550 -49.14356 22300 ft 419 kts 229°
2026-04-14 22:25 -28.38523 -49.16804 22723 ft 421 kts 229°
2026-04-14 22:25 -28.40501 -49.19263 23134 ft 422 kts 229°
2026-04-14 22:26 -28.42481 -49.21724 23530 ft 423 kts 229°
2026-04-14 22:26 -28.44472 -49.24202 23835 ft 426 kts 229°
2026-04-14 22:26 -28.46471 -49.26691 24162 ft 427 kts 229°
2026-04-14 22:26 -28.48469 -49.29181 24589 ft 425 kts 229°
2026-04-14 22:27 -28.50456 -49.31659 25063 ft 422 kts 229°
2026-04-14 22:27 -28.52312 -49.33974 25527 ft 419 kts 229°
2026-04-14 22:27 -28.54268 -49.36424 25994 ft 418 kts 229°
2026-04-14 22:27 -28.56221 -49.38872 26042 ft 416 kts 229°
2026-04-14 22:28 -28.58165 -49.41308 26071 ft 417 kts 229°
2026-04-14 22:28 -28.60010 -49.43619 26081 ft 419 kts 229°
2026-04-14 22:28 -28.61968 -49.46070 26089 ft 419 kts 229°
2026-04-14 22:28 -28.63904 -49.48493 26079 ft 419 kts 229°
2026-04-14 22:29 -28.65863 -49.50943 26069 ft 418 kts 229°
2026-04-14 22:29 -28.67772 -49.53332 26072 ft 418 kts 229°
2026-04-14 22:29 -28.69727 -49.55782 26084 ft 418 kts 229°
2026-04-14 22:29 -28.71598 -49.58129 26084 ft 418 kts 229°
2026-04-14 22:30 -28.73550 -49.60580 26081 ft 419 kts 229°
2026-04-14 22:30 -28.75392 -49.62889 26073 ft 419 kts 229°
2026-04-14 22:30 -28.77407 -49.65413 26082 ft 419 kts 229°
2026-04-14 22:30 -28.79365 -49.67873 26075 ft 419 kts 229°
2026-04-14 22:31 -28.81323 -49.70337 26080 ft 419 kts 229°
2026-04-14 22:31 -28.83277 -49.72799 26080 ft 419 kts 229°
2026-04-14 22:31 -28.85230 -49.75267 26073 ft 418 kts 229°
2026-04-14 22:31 -28.87178 -49.77729 26078 ft 418 kts 229°
2026-04-14 22:32 -28.89133 -49.80196 26077 ft 419 kts 229°
2026-04-14 22:32 -28.91104 -49.82520 26077 ft 419 kts 223°
2026-04-14 22:32 -28.93369 -49.84707 26088 ft 420 kts 220°
2026-04-14 22:32 -28.95630 -49.86763 26084 ft 421 kts 220°
2026-04-14 22:33 -28.97931 -49.88835 26081 ft 421 kts 220°
2026-04-14 22:33 -29.00166 -49.90863 26081 ft 421 kts 220°
2026-04-14 22:33 -29.02389 -49.92893 26085 ft 421 kts 220°
2026-04-14 22:33 -29.04669 -49.94999 26089 ft 421 kts 221°
2026-04-14 22:34 -29.06878 -49.97053 26089 ft 421 kts 221°
2026-04-14 22:34 -29.09148 -49.99171 26091 ft 421 kts 221°
2026-04-14 22:34 -29.11007 -50.00910 26084 ft 421 kts 221°
2026-04-14 22:34 -29.13276 -50.03032 26088 ft 421 kts 221°
2026-04-14 22:35 -29.15544 -50.05154 26088 ft 422 kts 221°
2026-04-14 22:35 -29.17816 -50.07281 26089 ft 422 kts 221°
2026-04-14 22:35 -29.20032 -50.09356 26089 ft 422 kts 221°
2026-04-14 22:35 -29.22304 -50.11483 26085 ft 422 kts 221°
2026-04-14 22:36 -29.24494 -50.13536 26083 ft 422 kts 221°
2026-04-14 22:36 -29.26762 -50.15663 26090 ft 421 kts 221°
2026-04-14 22:36 -29.28954 -50.17719 26084 ft 420 kts 221°
2026-04-14 22:36 -29.31174 -50.19802 26070 ft 405 kts 221°
2026-04-14 22:37 -29.33317 -50.21812 26067 ft 394 kts 221°
2026-04-14 22:37 -29.35426 -50.23793 26068 ft 391 kts 221°
2026-04-14 22:37 -29.37524 -50.25768 26078 ft 391 kts 221°
2026-04-14 22:37 -29.39639 -50.27761 25692 ft 395 kts 221°
2026-04-14 22:38 -29.41757 -50.29756 25278 ft 392 kts 221°
2026-04-14 22:38 -29.43857 -50.31736 24835 ft 390 kts 221°
2026-04-14 22:38 -29.45947 -50.33705 24374 ft 388 kts 221°
2026-04-14 22:38 -29.48028 -50.35667 23916 ft 387 kts 221°
2026-04-14 22:39 -29.50101 -50.37624 23443 ft 386 kts 221°
2026-04-14 22:39 -29.52141 -50.39552 22957 ft 384 kts 221°
2026-04-14 22:39 -29.53878 -50.41192 22561 ft 382 kts 221°
2026-04-14 22:39 -29.55920 -50.43122 22121 ft 379 kts 221°
2026-04-14 22:40 -29.57954 -50.45045 21676 ft 377 kts 221°
2026-04-14 22:40 -29.59974 -50.46956 21240 ft 375 kts 221°
2026-04-14 22:40 -29.61935 -50.48812 20819 ft 373 kts 221°
2026-04-14 22:40 -29.63931 -50.50703 20387 ft 371 kts 221°
2026-04-14 22:41 -29.65872 -50.52541 19974 ft 369 kts 221°
2026-04-14 22:41 -29.67853 -50.54419 19541 ft 368 kts 221°
2026-04-14 22:41 -29.69684 -50.56154 19132 ft 367 kts 220°
2026-04-14 22:41 -29.71657 -50.58019 18708 ft 366 kts 220°
2026-04-14 22:42 -29.73620 -50.59878 18267 ft 366 kts 220°
2026-04-14 22:42 -29.75579 -50.61736 17794 ft 364 kts 220°
2026-04-14 22:42 -29.77528 -50.63588 17361 ft 362 kts 220°
2026-04-14 22:42 -29.79461 -50.65427 16938 ft 360 kts 220°
2026-04-14 22:43 -29.81363 -50.67237 16524 ft 357 kts 220°
2026-04-14 22:43 -29.83271 -50.69054 16111 ft 355 kts 220°
2026-04-14 22:43 -29.85172 -50.70865 15700 ft 353 kts 220°
2026-04-14 22:43 -29.87063 -50.72667 15293 ft 351 kts 220°
2026-04-14 22:44 -29.88943 -50.74459 14887 ft 350 kts 220°
2026-04-14 22:44 -29.90816 -50.76245 14474 ft 348 kts 220°
2026-04-14 22:44 -29.92692 -50.78000 14072 ft 344 kts 218°
2026-04-14 22:44 -29.94567 -50.79696 13601 ft 340 kts 218°
2026-04-14 22:45 -29.96422 -50.81358 13174 ft 335 kts 218°
2026-04-14 22:45 -29.98240 -50.82991 12780 ft 329 kts 218°
2026-04-14 22:45 -29.99992 -50.84570 12400 ft 323 kts 218°
2026-04-14 22:45 -30.01677 -50.86092 12051 ft 321 kts 218°
2026-04-14 22:46 -30.03432 -50.87681 11690 ft 320 kts 218°
2026-04-14 22:46 -30.05187 -50.89271 11337 ft 319 kts 218°
2026-04-14 22:46 -30.06820 -50.90752 11220 ft 310 kts 218°
2026-04-14 22:46 -30.08372 -50.92467 11040 ft 302 kts 237°
2026-04-14 22:47 -30.09203 -50.94630 10758 ft 299 kts 258°
2026-04-14 22:47 -30.09349 -50.97014 10429 ft 298 kts 271°
2026-04-14 22:47 -30.09304 -50.99411 10124 ft 297 kts 272°
2026-04-14 22:47 -30.09239 -51.01747 10001 ft 288 kts 272°
2026-04-14 22:48 -30.09175 -51.04108 9382 ft 293 kts 272°
2026-04-14 22:48 -30.09119 -51.06455 8923 ft 290 kts 272°
2026-04-14 22:48 -30.09088 -51.07895 8700 ft 287 kts 272°
2026-04-14 22:48 -30.09041 -51.10174 8329 ft 281 kts 272°
2026-04-14 22:49 -30.08997 -51.12412 7980 ft 276 kts 272°
2026-04-14 22:49 -30.08955 -51.14598 7655 ft 273 kts 272°
2026-04-14 22:49 -30.08913 -51.16743 7333 ft 273 kts 272°
2026-04-14 22:49 -30.08871 -51.18898 7005 ft 274 kts 272°
2026-04-14 22:50 -30.08826 -51.21096 6686 ft 273 kts 272°
2026-04-14 22:50 -30.08780 -51.23286 6373 ft 272 kts 272°
2026-04-14 22:50 -30.08735 -51.25462 6044 ft 270 kts 272°
2026-04-14 22:50 -30.08689 -51.27624 5722 ft 269 kts 272°
2026-04-14 22:51 -30.08644 -51.29761 5415 ft 264 kts 272°
2026-04-14 22:51 -30.08599 -51.31842 5150 ft 254 kts 272°
2026-04-14 22:51 -30.08556 -51.33841 4851 ft 245 kts 272°
2026-04-14 22:51 -30.08516 -51.35705 4572 ft 236 kts 272°
2026-04-14 22:52 -30.08445 -51.37548 4309 ft 224 kts 281°
2026-04-14 22:52 -30.07802 -51.39085 4092 ft 206 kts 317°
2026-04-14 22:52 -30.06657 -51.39933 3911 ft 194 kts 345°
2026-04-14 22:52 -30.05370 -51.40137 3726 ft 182 kts
2026-04-14 22:53 -30.04173 -51.39781 3542 ft 176 kts 25°
2026-04-14 22:53 -30.03021 -51.39264 3384 ft 179 kts 24°
2026-04-14 22:53 -30.01855 -51.38745 3214 ft 180 kts 25°
2026-04-14 22:53 -30.00848 -51.38294 3069 ft 180 kts 25°
2026-04-14 22:54 -29.99858 -51.37476 2860 ft 173 kts 56°
2026-04-14 22:54 -29.99286 -51.36287 2700 ft 168 kts 74°
2026-04-14 22:54 -29.99144 -51.34983 2520 ft 162 kts 93°
2026-04-14 22:54 -29.99166 -51.33716 2439 ft 160 kts 91°
2026-04-14 22:55 -29.99178 -51.32384 2272 ft 172 kts 91°
2026-04-14 22:55 -29.99199 -51.31027 2044 ft 165 kts 92°
2026-04-14 22:55 -29.99222 -51.29751 1846 ft 154 kts 92°
2026-04-14 22:55 -29.99244 -51.28536 1641 ft 150 kts 92°
2026-04-14 22:56 -29.99267 -51.27315 1463 ft 154 kts 93°
2026-04-14 22:56 -29.99290 -51.26092 1250 ft 149 kts 92°
2026-04-14 22:56 -29.99312 -51.24913 1059 ft 147 kts 94°
2026-04-14 22:56 -29.99335 -51.23731 878 ft 149 kts 94°
2026-04-14 22:57 -29.99355 -51.22551 813 ft 147 kts 94°
2026-04-14 22:57 -29.99391 -51.21404 664 ft 142 kts 93°
2026-04-14 22:57 -29.99395 -51.20260 458 ft 142 kts 92°
2026-04-14 22:57 -29.99418 -51.19110 242 ft 146 kts 93°
2026-04-14 22:58 -29.99441 -51.17947 45 ft 141 kts 94°
2026-04-14 22:58 -29.99464 -51.16930 27 ft 112 kts 90°
2026-04-14 22:58 -29.99473 -51.16283 38 ft 31 kts 82°
2026-04-14 22:58 -29.99452 -51.16247 37 ft 4 kts 23°
2026-04-14 22:59 -29.99394 -51.16238 37 ft 12 kts
2026-04-14 22:59 -29.99310 -51.16245 36 ft 12 kts 333°
2026-04-14 22:59 -29.99290 -51.16333 35 ft 12 kts 272°
2026-04-14 22:59 -29.99288 -51.16428 34 ft 12 kts 269°
2026-04-14 23:00 -29.99284 -51.16519 34 ft 11 kts 273°
2026-04-14 23:00 -29.99282 -51.16610 33 ft 11 kts 268°
2026-04-14 23:00 -29.99283 -51.16702 32 ft 13 kts 270°
2026-04-14 23:00 -29.99280 -51.16827 31 ft 18 kts 271°
2026-04-14 23:01 -29.99276 -51.16986 30 ft 20 kts 271°
2026-04-14 23:01 -29.99274 -51.17146 28 ft 20 kts 271°
2026-04-14 23:01 -29.99271 -51.17293 27 ft 16 kts 270°
2026-04-14 23:01 -29.99250 -51.17390 27 ft 9 kts 326°
2026-04-14 23:02 -29.99192 -51.17407 26 ft 9 kts 320°
2026-04-14 23:02 -29.99180 -51.17470 26 ft 7 kts 274°
2026-04-14 23:02 -29.99177 -51.17514 26 ft 0 kts 277°
2026-04-14 23:02 -29.99177 -51.17515 26 ft 0 kts 280°
2026-04-14 23:03 -29.99172 -51.17521 29 ft 3 kts 307°
2026-04-14 23:03 -29.99150 -51.17527 25 ft 4 kts
2026-04-14 23:03 -29.99137 -51.17527 26 ft 0 kts 359°